Terminal Aerodrome Forecast
Issued by NWS Wakefield, VA

Home | Current Version | Previous Version | Text Only | Print | Product List | Glossary On
Versions: 1 2 3 4 5 6 7 8 9 10 11 12 13 14
000
FTUS41 KAKQ 301700 RRA
TAFRIC
TAF
KRIC 301741Z 3018/3118 32016G26KT P6SM OVC050
     FM302000 31020G28KT P6SM BKN050
     FM302300 32013KT P6SM SKC
     FM310500 33009KT P6SM SKC
     FM311500 31010G15KT P6SM FEW200=

USA.gov is the U.S. government's official web portal to all federal, state and local government web resources and services.